CW2551 Weather Reports


Display with metric or nautical units.
time (UTC)temp
F
wind
direction
speed
MPH
gust
MPH
rain 1hr
in
rain 24hr
in
rain mn
in
humidity
%
barometer
mb
20260509185604 73 33 0.0 0.0 0.00 0.00 0.00 48 1015.7
20260509185104 72 37 0.0 0.0 0.00 0.00 0.00 47 1015.7
20260509185022 72 33 0.0 0.0 0.00 0.00 0.00 51 1015.8
20260509184605 72 33 0.0 0.0 0.00 0.00 0.00 51 1015.8
20260509184105 72 42 0.0 0.0 0.00 0.00 0.00 44 1015.9
20260509184021 71 42 1.0 3.0 0.00 0.00 0.00 49 1016.0
20260509183606 71 42 1.0 3.0 0.00 0.00 0.00 49 1016.0
20260509183104 70 306 1.0 3.0 0.00 0.00 0.00 49 1016.1
20260509183023 70 302 0.0 2.0 0.00 0.00 0.00 48 1016.2
20260509182605 70 302 0.0 2.0 0.00 0.00 0.00 48 1016.2
20260509182106 70 300 0.0 2.0 0.00 0.00 0.00 49 1016.2
20260509182021 69 298 0.0 0.0 0.00 0.00 0.00 50 1016.1
20260509181604 69 298 0.0 0.0 0.00 0.00 0.00 50 1016.1
20260509181105 69 295 0.0 1.0 0.00 0.00 0.00 51 1016.2
20260509181022 68 304 1.0 3.0 0.00 0.00 0.00 54 1016.3
20260509180605 68 304 1.0 3.0 0.00 0.00 0.00 54 1016.3
20260509180023 67 283 0.0 0.0 0.00 0.00 0.00 53 1016.5
20260509175606 67 283 0.0 0.0 0.00 0.00 0.00 53 1016.5
20260509175107 67 284 1.0 2.0 0.00 0.00 0.00 52 1016.6
20260509175022 67 286 0.0 1.0 0.00 0.00 0.00 51 1016.7
20260509174604 67 286 0.0 1.0 0.00 0.00 0.00 51 1016.7
20260509174104 67 260 0.0 3.0 0.00 0.00 0.00 53 1016.6
20260509174021 67 244 0.0 3.0 0.00 0.00 0.00 56 1016.7
20260509173606 67 244 0.0 3.0 0.00 0.00 0.00 56 1016.7
20260509173022 67 316 0.0 0.0 0.00 0.00 0.00 53 1016.8
20260509172604 67 316 0.0 0.0 0.00 0.00 0.00 53 1016.8
20260509172104 67 317 0.0 0.0 0.00 0.00 0.00 54 1016.9
20260509172022 67 321 0.0 0.0 0.00 0.00 0.00 54 1017.0
20260509171604 67 321 0.0 0.0 0.00 0.00 0.00 54 1017.0
20260509171104 66 336 0.0 0.0 0.00 0.00 0.00 58 1017.0
20260509170104 65 336 0.0 2.0 0.00 0.00 0.00 56 1017.2
20260509170022 65 328 0.0 2.0 0.00 0.00 0.00 56 1017.3
20260509165104 64 320 0.0 1.0 0.00 0.00 0.00 57 1017.4
20260509165020 64 321 1.0 3.0 0.00 0.00 0.00 57 1017.3
20260509164604 64 321 1.0 3.0 0.00 0.00 0.00 57 1017.3
20260509164104 63 300 0.0 0.0 0.00 0.00 0.00 58 1017.4
20260509164021 63 302 0.0 0.0 0.00 0.00 0.00 61 1017.4
20260509163605 63 302 0.0 0.0 0.00 0.00 0.00 61 1017.4
20260509163105 62 311 0.0 0.0 0.00 0.00 0.00 62 1017.4
20260509163022 62 300 0.0 0.0 0.00 0.00 0.00 61 1017.5
20260509162604 62 300 0.0 0.0 0.00 0.00 0.00 61 1017.5
20260509162104 61 300 0.0 0.0 0.00 0.00 0.00 63 1017.6
20260509161605 61 307 0.0 1.0 0.00 0.00 0.00 61 1017.7
20260509161105 61 350 0.0 0.0 0.00 0.00 0.00 63 1017.7
20260509161021 60 5 0.0 0.0 0.00 0.00 0.00 63 1017.7
20260509160604 60 5 0.0 0.0 0.00 0.00 0.00 63 1017.7
20260509160105 60 5 0.0 0.0 0.00 0.00 0.00 64 1017.9
20260509160023 60 5 0.0 0.0 0.00 0.00 0.00 66 1017.9
20260509155604 60 5 0.0 0.0 0.00 0.00 0.00 66 1017.9
20260509155104 59 5 0.0 0.0 0.00 0.00 0.00 66 1017.9
20260509155022 59 5 0.0 0.0 0.00 0.00 0.00 67 1017.9
20260509154604 59 5 0.0 0.0 0.00 0.00 0.00 67 1017.9
20260509154104 58 5 0.0 0.0 0.00 0.00 0.00 67 1018.0
20260509154021 58 5 0.0 0.0 0.00 0.00 0.00 69 1018.1
20260509153604 58 5 0.0 0.0 0.00 0.00 0.00 69 1018.1
20260509153104 57 5 0.0 0.0 0.00 0.00 0.00 71 1018.2
20260509153023 57 9 0.0 0.0 0.00 0.00 0.00 71 1018.2
20260509152604 57 9 0.0 0.0 0.00 0.00 0.00 71 1018.2
20260509152105 56 9 0.0 0.0 0.00 0.00 0.00 71 1018.3
20260509152022 56 9 0.0 0.0 0.00 0.00 0.00 73 1018.3
20260509151604 56 9 0.0 0.0 0.00 0.00 0.00 73 1018.3
20260509151104 56 13 0.0 0.0 0.00 0.00 0.00 73 1018.3
20260509150605 55 19 0.0 0.0 0.00 0.00 0.00 75 1018.4
20260509150022 54 24 0.0 0.0 0.00 0.00 0.00 76 1018.5
20260509145604 54 24 0.0 0.0 0.00 0.00 0.00 76 1018.5
20260509145106 54 31 0.0 0.0 0.00 0.00 0.00 79 1018.3
20260509145022 53 34 0.0 0.0 0.00 0.00 0.00 82 1018.3
20260509144104 52 34 0.0 0.0 0.00 0.00 0.00 84 1018.4
20260509144022 51 35 0.0 0.0 0.00 0.00 0.00 86 1018.4
20260509143604 51 35 0.0 0.0 0.00 0.00 0.00 86 1018.4
20260509143104 51 35 0.0 0.0 0.00 0.00 0.00 87 1018.3
20260509143022 50 35 0.0 0.0 0.00 0.00 0.00 87 1018.3
20260509142604 50 35 0.0 0.0 0.00 0.00 0.00 87 1018.3
20260509142104 50 35 0.0 0.0 0.00 0.00 0.00 88 1018.4
20260509142020 49 35 0.0 0.0 0.00 0.00 0.00 88 1018.5
20260509141604 49 35 0.0 0.0 0.00 0.00 0.00 88 1018.5
20260509141104 48 36 0.0 0.0 0.00 0.00 0.00 88 1018.4
20260509140105 47 36 0.0 0.0 0.00 0.00 0.00 87 1018.6
20260509140023 47 36 0.0 0.0 0.00 0.00 0.00 87 1018.6
20260509135604 47 36 0.0 0.0 0.00 0.00 0.00 87 1018.6
20260509135106 47 36 0.0 0.0 0.00 0.00 0.00 86 1018.5
20260509135021 46 36 0.0 0.0 0.00 0.00 0.00 86 1018.5
20260509134604 46 36 0.0 0.0 0.00 0.00 0.00 86 1018.5
20260509134104 47 36 0.0 0.0 0.00 0.00 0.00 85 1018.6
20260509134020 46 36 0.0 0.0 0.00 0.00 0.00 85 1018.6
20260509133604 46 36 0.0 0.0 0.00 0.00 0.00 85 1018.6
20260509133104 46 36 0.0 0.0 0.00 0.00 0.00 84 1018.5
20260509133026 46 36 0.0 0.0 0.00 0.00 0.00 85 1018.4
20260509132604 46 36 0.0 0.0 0.00 0.00 0.00 85 1018.4
20260509132106 46 36 0.0 0.0 0.00 0.00 0.00 84 1018.6
20260509132020 47 36 0.0 0.0 0.00 0.00 0.00 84 1018.6
20260509131105 47 36 0.0 0.0 0.00 0.00 0.00 84 1018.5
20260509130604 47 36 0.0 0.0 0.00 0.00 0.00 84 1018.5
20260509130105 47 36 0.0 0.0 0.00 0.00 0.00 84 1018.5
20260509130023 47 36 0.0 0.0 0.00 0.00 0.00 84 1018.5
20260509125604 47 36 0.0 0.0 0.00 0.00 0.00 84 1018.5
20260509125105 47 36 0.0 0.0 0.00 0.00 0.00 83 1018.5
20260509125023 47 36 0.0 0.0 0.00 0.00 0.00 84 1018.5
20260509124605 47 36 0.0 0.0 0.00 0.00 0.00 84 1018.5
20260509124022 47 36 0.0 0.0 0.00 0.00 0.00 83 1018.6
20260509123604 47 36 0.0 0.0 0.00 0.00 0.00 83 1018.6
20260509123106 47 36 0.0 0.0 0.00 0.00 0.00 83 1018.6
20260509123021 47 36 0.0 0.0 0.00 0.00 0.00 83 1018.6
20260509122106 48 36 0.0 0.0 0.00 0.00 0.00 83 1018.6
20260509121020 48 36 0.0 0.0 0.00 0.00 0.00 82 1018.6
20260509120605 48 36 0.0 0.0 0.00 0.00 0.00 82 1018.6
20260509120106 48 36 0.0 0.0 0.00 0.00 0.00 82 1018.6
20260509120021 48 36 0.0 0.0 0.00 0.00 0.00 82 1018.7
20260509115104 48 36 0.0 0.0 0.00 0.00 0.00 82 1018.8
20260509114604 49 36 0.0 0.0 0.00 0.00 0.00 82 1018.7
20260509114106 49 36 0.0 0.0 0.00 0.00 0.00 82 1018.8
20260509114021 49 36 0.0 0.0 0.00 0.00 0.00 82 1018.8
20260509113605 49 36 0.0 0.0 0.00 0.00 0.00 82 1018.8
20260509113106 49 36 0.0 0.0 0.00 0.00 0.00 81 1018.8
20260509113021 49 36 0.0 0.0 0.00 0.00 0.00 81 1019.0
20260509112604 49 36 0.0 0.0 0.00 0.00 0.00 81 1019.0
20260509112106 49 36 0.0 0.0 0.00 0.00 0.00 81 1018.9
20260509112020 49 36 0.0 0.0 0.00 0.00 0.00 80 1019.0
20260509111604 49 36 0.0 0.0 0.00 0.00 0.00 80 1019.0
20260509111106 49 36 0.0 0.0 0.00 0.00 0.00 80 1019.0
20260509111021 50 36 0.0 0.0 0.00 0.00 0.00 80 1019.0
20260509110604 50 36 0.0 0.0 0.00 0.00 0.00 80 1019.0
20260509110106 50 36 0.0 0.0 0.00 0.00 0.00 80 1019.0
20260509110020 50 36 0.0 0.0 0.00 0.00 0.00 80 1018.9
20260509105605 50 36 0.0 0.0 0.00 0.00 0.00 80 1018.9
20260509105106 50 36 0.0 0.0 0.00 0.00 0.00 80 1018.9
20260509104605 50 36 0.0 0.0 0.00 0.00 0.00 80 1018.8
20260509104108 50 36 0.0 0.0 0.00 0.00 0.00 79 1018.8
20260509104021 51 36 0.0 0.0 0.00 0.00 0.00 79 1018.8
20260509103604 51 36 0.0 0.0 0.00 0.00 0.00 79 1018.8
20260509103105 51 36 0.0 0.0 0.00 0.00 0.00 78 1018.7
20260509103023 51 36 0.0 0.0 0.00 0.00 0.00 79 1018.7
20260509102604 51 36 0.0 0.0 0.00 0.00 0.00 79 1018.7
20260509102022 51 36 0.0 0.0 0.00 0.00 0.00 78 1018.7
20260509101604 51 36 0.0 0.0 0.00 0.00 0.00 78 1018.7
20260509101105 52 37 0.0 0.0 0.00 0.00 0.00 78 1018.7
20260509101020 52 37 0.0 0.0 0.00 0.00 0.00 78 1018.7
20260509100604 52 37 0.0 0.0 0.00 0.00 0.00 78 1018.7
20260509100106 52 37 0.0 0.0 0.00 0.00 0.00 78 1018.7
20260509100021 52 37 0.0 0.0 0.00 0.00 0.00 77 1018.6
20260509095604 52 37 0.0 0.0 0.00 0.00 0.00 77 1018.6
20260509095106 52 37 0.0 0.0 0.00 0.00 0.00 77 1018.7
20260509095021 52 37 0.0 0.0 0.00 0.00 0.00 77 1018.7
20260509094604 52 37 0.0 0.0 0.00 0.00 0.00 77 1018.7
20260509094022 53 37 0.0 0.0 0.00 0.00 0.00 76 1018.7
20260509093604 53 37 0.0 0.0 0.00 0.00 0.00 76 1018.7
20260509093105 53 37 0.0 0.0 0.00 0.00 0.00 76 1018.7
20260509093021 53 37 0.0 0.0 0.00 0.00 0.00 76 1018.7
20260509092604 53 37 0.0 0.0 0.00 0.00 0.00 76 1018.7
20260509092106 53 37 0.0 0.0 0.00 0.00 0.00 76 1018.8
20260509092021 53 37 0.0 0.0 0.00 0.00 0.00 76 1018.8
20260509091605 53 37 0.0 0.0 0.00 0.00 0.00 76 1018.8
20260509091022 54 37 0.0 0.0 0.00 0.00 0.00 75 1018.9
20260509090604 54 37 0.0 0.0 0.00 0.00 0.00 75 1018.9
20260509090021 54 37 0.0 0.0 0.00 0.00 0.00 74 1019.0
20260509085605 54 37 0.0 0.0 0.00 0.00 0.00 74 1019.0
20260509085021 55 37 0.0 0.0 0.00 0.00 0.00 73 1018.8
20260509084605 55 37 0.0 0.0 0.00 0.00 0.00 73 1018.8
20260509084106 55 37 0.0 0.0 0.00 0.00 0.00 73 1018.9
20260509083605 55 37 0.0 0.0 0.00 0.00 0.00 73 1019.0
20260509083106 55 37 0.0 0.0 0.00 0.00 0.00 72 1019.0
20260509083022 56 37 0.0 0.0 0.00 0.00 0.00 72 1019.0
20260509082604 56 37 0.0 0.0 0.00 0.00 0.00 72 1019.0
20260509082023 56 37 0.0 0.0 0.00 0.00 0.00 71 1019.1
20260509081104 56 37 0.0 0.0 0.00 0.00 0.00 70 1019.1
20260509080604 57 37 0.0 0.0 0.00 0.00 0.00 70 1019.1
20260509080104 57 37 0.0 0.0 0.00 0.00 0.00 70 1019.0
20260509080021 57 37 0.0 0.0 0.00 0.00 0.00 69 1019.0
20260509075606 57 37 0.0 0.0 0.00 0.00 0.00 69 1019.0
20260509075021 57 37 0.0 0.0 0.00 0.00 0.00 68 1019.0
20260509074606 57 37 0.0 0.0 0.00 0.00 0.00 68 1019.0
20260509074105 58 37 0.0 0.0 0.00 0.00 0.00 69 1018.9
20260509073104 58 36 0.0 0.0 0.00 0.00 0.00 68 1018.9
20260509073021 58 36 0.0 0.0 0.00 0.00 0.00 68 1018.8
20260509072020 59 36 0.0 0.0 0.00 0.00 0.00 67 1018.8
20260509071604 59 36 0.0 0.0 0.00 0.00 0.00 67 1018.8
20260509071105 59 36 0.0 0.0 0.00 0.00 0.00 66 1018.8
20260509071022 59 36 0.0 0.0 0.00 0.00 0.00 66 1018.8
20260509070604 59 36 0.0 0.0 0.00 0.00 0.00 66 1018.8
20260509070105 59 36 0.0 0.0 0.00 0.00 0.00 65 1018.8
20260509070026 59 36 0.0 0.0 0.00 0.00 0.00 65 1018.8
20260509065606 59 36 0.0 0.0 0.00 0.00 0.00 65 1018.8
20260509065104 59 35 0.0 0.0 0.00 0.00 0.00 65 1018.7
20260509065021 60 35 0.0 0.0 0.00 0.00 0.00 65 1018.7
20260509064606 60 35 0.0 0.0 0.00 0.00 0.00 65 1018.7
20260509064021 60 36 0.0 0.0 0.00 0.00 0.00 63 1018.8
20260509063605 60 36 0.0 0.0 0.00 0.00 0.00 63 1018.8
20260509063104 60 36 0.0 0.0 0.00 0.00 0.00 63 1018.8
20260509063021 60 34 0.0 0.0 0.00 0.00 0.00 63 1018.8
20260509062105 61 34 0.0 0.0 0.00 0.00 0.00 63 1018.7
20260509062022 61 34 0.0 0.0 0.00 0.00 0.00 63 1018.7
20260509061606 61 34 0.0 0.0 0.00 0.00 0.00 63 1018.7
20260509061105 61 34 0.0 0.0 0.00 0.00 0.00 61 1018.8
20260509061021 62 34 0.0 0.0 0.00 0.00 0.00 61 1018.8
20260509060606 62 34 0.0 0.0 0.00 0.00 0.00 61 1018.8
20260509060105 62 33 0.0 0.0 0.00 0.00 0.00 61 1018.9
20260509060021 62 32 0.0 0.0 0.00 0.00 0.00 60 1018.9
20260509055604 62 32 0.0 0.0 0.00 0.00 0.00 60 1018.9
20260509055104 62 32 0.0 0.0 0.00 0.00 0.00 60 1018.9
20260509055022 63 32 0.0 0.0 0.00 0.00 0.00 59 1018.9
20260509054021 63 32 0.0 0.0 0.00 0.00 0.00 59 1018.9
20260509053604 63 32 0.0 0.0 0.00 0.00 0.00 59 1018.9
20260509053105 63 30 0.0 0.0 0.00 0.00 0.00 59 1018.9
20260509052020 64 16 0.0 0.0 0.00 0.00 0.00 58 1018.9
20260509051605 64 16 0.0 0.0 0.00 0.00 0.00 58 1018.9
20260509051104 64 16 0.0 0.0 0.00 0.00 0.00 57 1018.9
20260509051025 65 16 0.0 0.0 0.00 0.00 0.00 57 1018.9
20260509050604 65 16 0.0 0.0 0.00 0.00 0.00 57 1018.9
20260509050104 65 16 0.0 0.0 0.00 0.00 0.00 56 1018.7
20260509050022 65 16 0.0 0.0 0.00 0.00 0.00 56 1018.5
20260509045606 65 16 0.0 0.0 0.00 0.00 0.00 56 1018.5
20260509045104 65 16 0.0 0.0 0.00 0.00 0.00 54 1018.4
20260509045021 66 16 0.0 0.0 0.00 0.00 0.00 54 1018.3
20260509044605 66 16 0.0 0.0 0.00 0.00 0.00 54 1018.3
20260509044106 66 16 0.0 0.0 0.00 0.00 0.00 53 1018.3
20260509044022 67 16 0.0 0.0 0.00 0.00 0.00 53 1018.3
20260509043604 67 16 0.0 0.0 0.00 0.00 0.00 53 1018.3
20260509043104 67 16 0.0 0.0 0.00 0.00 0.00 52 1018.1
20260509043025 67 16 0.0 0.0 0.00 0.00 0.00 51 1018.1
20260509042604 67 16 0.0 0.0 0.00 0.00 0.00 51 1018.1
20260509042107 68 16 0.0 0.0 0.00 0.00 0.00 51 1017.9
20260509042021 68 17 0.0 0.0 0.00 0.00 0.00 50 1018.0
20260509041604 68 17 0.0 0.0 0.00 0.00 0.00 50 1018.0
20260509041106 68 17 0.0 0.0 0.00 0.00 0.00 49 1017.9
20260509041022 69 17 0.0 0.0 0.00 0.00 0.00 48 1017.8
20260509040605 69 17 0.0 0.0 0.00 0.00 0.00 48 1017.8
20260509040104 69 17 0.0 0.0 0.00 0.00 0.00 48 1017.7
20260509040022 69 16 0.0 0.0 0.00 0.00 0.00 48 1017.7
20260509035605 69 16 0.0 0.0 0.00 0.00 0.00 48 1017.7
20260509035022 69 19 0.0 0.0 0.00 0.00 0.00 46 1017.7
20260509034604 69 19 0.0 0.0 0.00 0.00 0.00 46 1017.7
20260509034023 70 13 0.0 6.0 0.00 0.00 0.00 45 1017.3
20260509033605 70 13 0.0 6.0 0.00 0.00 0.00 45 1017.3
20260509033021 70 23 1.0 7.0 0.00 0.00 0.00 45 1017.1
20260509032604 70 23 1.0 7.0 0.00 0.00 0.00 45 1017.1
20260509032020 71 26 0.0 0.0 0.00 0.00 0.00 45 1016.9
20260509031606 71 26 0.0 0.0 0.00 0.00 0.00 45 1016.9
20260509031104 71 358 2.0 6.0 0.00 0.00 0.00 45 1016.9
20260509030604 72 3 1.0 5.0 0.00 0.00 0.00 44 1016.8
20260509030104 72 45 2.0 8.0 0.00 0.00 0.00 44 1016.6
20260509030023 73 8 0.0 6.0 0.00 0.00 0.00 44 1016.6
20260509025605 73 8 0.0 6.0 0.00 0.00 0.00 44 1016.6
20260509025105 73 356 2.0 6.0 0.00 0.00 0.00 44 1016.5
20260509025021 73 345 0.0 3.0 0.00 0.00 0.00 43 1016.5
20260509024605 73 345 0.0 3.0 0.00 0.00 0.00 43 1016.5
20260509024104 74 351 0.0 5.0 0.00 0.00 0.00 42 1016.4
20260509024021 74 354 1.0 9.0 0.00 0.00 0.00 42 1016.4
20260509023605 74 354 1.0 9.0 0.00 0.00 0.00 42 1016.4
20260509023104 75 10 0.0 2.0 0.00 0.00 0.00 41 1016.3
20260509023022 75 357 3.0 12.0 0.00 0.00 0.00 40 1016.3
20260509022604 75 357 3.0 12.0 0.00 0.00 0.00 40 1016.3
20260509022021 76 344 4.0 12.0 0.00 0.00 0.00 39 1016.1
20260509021608 76 344 4.0 12.0 0.00 0.00 0.00 39 1016.1
20260509021104 76 352 3.0 12.0 0.00 0.00 0.00 38 1016.1
20260509021023 76 4 5.0 10.0 0.00 0.00 0.00 37 1015.9
20260509020604 76 4 5.0 10.0 0.00 0.00 0.00 37 1015.9
20260509020106 77 357 7.0 13.0 0.00 0.00 0.00 37 1015.9
20260509020022 77 358 2.0 8.0 0.00 0.00 0.00 37 1015.9
20260509015104 77 5 6.0 13.0 0.00 0.00 0.00 36 1015.8
20260509014105 78 18 3.0 12.0 0.00 0.00 0.00 33 1015.7
20260509014021 78 309 0.0 8.0 0.00 0.00 0.00 31 1015.6
20260509013604 78 309 0.0 8.0 0.00 0.00 0.00 31 1015.6
20260509013104 78 283 1.0 3.0 0.00 0.00 0.00 32 1015.6
20260509013024 78 10 1.0 5.0 0.00 0.00 0.00 31 1015.7
20260509012605 78 10 1.0 5.0 0.00 0.00 0.00 31 1015.7
20260509012103 79 25 1.0 8.0 0.00 0.00 0.00 31 1015.6
20260509012021 79 334 2.0 7.0 0.00 0.00 0.00 31 1015.7
20260509011604 79 334 2.0 7.0 0.00 0.00 0.00 31 1015.7
20260509011104 79 293 0.0 7.0 0.00 0.00 0.00 31 1015.7
20260509011021 79 2 1.0 8.0 0.00 0.00 0.00 31 1015.7
20260509010604 79 2 1.0 8.0 0.00 0.00 0.00 31 1015.7
20260509010104 79 347 3.0 9.0 0.00 0.00 0.00 30 1015.8
20260509010024 79 349 1.0 5.0 0.00 0.00 0.00 31 1015.8
20260509005604 79 349 1.0 5.0 0.00 0.00 0.00 31 1015.8
20260509005104 79 317 1.0 6.0 0.00 0.00 0.00 31 1015.8
20260509005021 79 291 2.0 12.0 0.00 0.00 0.00 30 1015.8
20260509004604 79 291 2.0 12.0 0.00 0.00 0.00 30 1015.8
20260509004022 79 300 1.0 8.0 0.00 0.00 0.00 30 1015.8
20260509003606 79 300 1.0 8.0 0.00 0.00 0.00 30 1015.8
20260509003106 80 352 4.0 8.0 0.00 0.00 0.00 29 1015.7
20260509003023 79 326 3.0 8.0 0.00 0.00 0.00 30 1015.7
20260509002604 79 326 3.0 8.0 0.00 0.00 0.00 30 1015.7
20260509002104 80 324 1.0 8.0 0.00 0.00 0.00 31 1015.7
20260509001604 80 345 2.0 12.0 0.00 0.00 0.00 29 1015.8
20260509001104 80 357 4.0 10.0 0.00 0.00 0.00 29 1015.9
20260509000606 80 4 6.0 10.0 0.00 0.00 0.00 29 1015.9
20260509000023 80 243 1.0 8.0 0.00 0.00 0.00 30 1015.9
20260508235604 80 243 1.0 8.0 0.00 0.00 0.00 30 1015.9
20260508235104 81 15 2.0 9.0 0.00 0.00 0.00 28 1016.1
20260508235022 81 347 3.0 9.0 0.00 0.00 0.00 27 1016.1
20260508234605 81 347 3.0 9.0 0.00 0.00 0.00 27 1016.1
20260508234104 81 2 2.0 8.0 0.00 0.00 0.00 29 1016.1
20260508234022 81 272 0.0 7.0 0.00 0.00 0.00 27 1016.1
20260508233605 81 272 0.0 7.0 0.00 0.00 0.00 27 1016.1
20260508233104 81 349 1.0 8.0 0.00 0.00 0.00 28 1016.1
20260508233022 81 30 2.0 8.0 0.00 0.00 0.00 27 1016.2
20260508232606 81 30 2.0 8.0 0.00 0.00 0.00 27 1016.2
20260508232104 81 234 2.0 8.0 0.00 0.00 0.00 28 1016.2
20260508232021 81 341 1.0 6.0 0.00 0.00 0.00 27 1016.2
20260508231604 81 341 1.0 6.0 0.00 0.00 0.00 27 1016.2
20260508231104 80 344 4.0 10.0 0.00 0.00 0.00 25 1016.2
20260508231021 80 328 3.0 8.0 0.00 0.00 0.00 27 1016.3
20260508230605 80 328 3.0 8.0 0.00 0.00 0.00 27 1016.3
20260508230104 80 345 1.0 3.0 0.00 0.00 0.00 27 1016.3
20260508230024 80 5 2.0 6.0 0.00 0.00 0.00 26 1016.4
20260508225604 80 5 2.0 6.0 0.00 0.00 0.00 26 1016.4
20260508225021 80 325 0.0 5.0 0.00 0.00 0.00 28 1016.4
20260508224604 80 325 0.0 5.0 0.00 0.00 0.00 28 1016.4
20260508224106 81 8 2.0 6.0 0.00 0.00 0.00 27 1016.5
20260508224021 80 304 0.0 5.0 0.00 0.00 0.00 28 1016.5
20260508223604 80 304 0.0 5.0 0.00 0.00 0.00 28 1016.5
20260508223104 79 354 1.0 9.0 0.00 0.00 0.00 30 1016.6
20260508223024 80 250 2.0 9.0 0.00 0.00 0.00 28 1016.7
20260508222605 80 250 2.0 9.0 0.00 0.00 0.00 28 1016.7
20260508222104 81 246 1.0 8.0 0.00 0.00 0.00 29 1016.6
20260508222021 81 346 3.0 9.0 0.00 0.00 0.00 31 1016.8
20260508221607 81 346 3.0 9.0 0.00 0.00 0.00 31 1016.8
20260508221104 80 348 4.0 9.0 0.00 0.00 0.00 28 1016.7
20260508221022 80 51 1.0 8.0 0.00 0.00 0.00 30 1016.7
20260508220604 80 51 1.0 8.0 0.00 0.00 0.00 30 1016.7
20260508220104 80 28 1.0 9.0 0.00 0.00 0.00 30 1016.9
20260508215604 80 351 1.0 5.0 0.00 0.00 0.00 30 1016.9
20260508215104 80 13 1.0 12.0 0.00 0.00 0.00 30 1016.9
20260508215023 80 323 1.0 6.0 0.00 0.00 0.00 29 1017.0
20260508214604 80 323 1.0 6.0 0.00 0.00 0.00 29 1017.0
20260508214104 80 33 1.0 3.0 0.00 0.00 0.00 30 1017.0
20260508214022 80 347 2.0 8.0 0.00 0.00 0.00 31 1017.1
20260508213104 79 348 2.0 8.0 0.00 0.00 0.00 34 1017.0
20260508213026 79 339 1.0 5.0 0.00 0.00 0.00 35 1017.2
20260508212604 79 339 1.0 5.0 0.00 0.00 0.00 35 1017.2
20260508212104 78 121 0.0 5.0 0.00 0.00 0.00 30 1017.1
20260508212020 79 9 0.0 8.0 0.00 0.00 0.00 34 1017.2
20260508211604 79 9 0.0 8.0 0.00 0.00 0.00 34 1017.2
20260508211104 79 353 2.0 9.0 0.00 0.00 0.00 34 1017.2
20260508211021 79 354 1.0 7.0 0.00 0.00 0.00 35 1017.2
20260508210104 79 5 1.0 6.0 0.00 0.00 0.00 31 1017.2
20260508205604 79 351 3.0 8.0 0.00 0.00 0.00 32 1017.2
20260508205106 78 12 4.0 8.0 0.00 0.00 0.00 33 1017.2
20260508205022 79 263 1.0 10.0 0.00 0.00 0.00 34 1017.2
20260508204604 79 263 1.0 10.0 0.00 0.00 0.00 34 1017.2
20260508204105 78 316 3.0 7.0 0.00 0.00 0.00 34 1017.2
20260508204020 78 332 1.0 10.0 0.00 0.00 0.00 32 1017.3
20260508203604 78 332 1.0 10.0 0.00 0.00 0.00 32 1017.3
20260508203025 77 68 2.0 5.0 0.00 0.00 0.00 36 1017.3
20260508202604 77 68 2.0 5.0 0.00 0.00 0.00 36 1017.3
20260508202104 78 12 2.0 6.0 0.00 0.00 0.00 35 1017.4
20260508201604 77 338 2.0 9.0 0.00 0.00 0.00 33 1017.4
20260508201106 76 31 1.0 5.0 0.00 0.00 0.00 34 1017.4
20260508201021 77 352 5.0 8.0 0.00 0.00 0.00 34 1017.5
20260508200604 77 352 5.0 8.0 0.00 0.00 0.00 34 1017.5
20260508200104 77 345 1.0 6.0 0.00 0.00 0.00 36 1017.5
20260508200025 77 41 1.0 7.0 0.00 0.00 0.00 33 1017.5
20260508195104 77 63 3.0 8.0 0.00 0.00 0.00 32 1017.6
20260508195021 75 50 1.0 5.0 0.00 0.00 0.00 35 1017.6
20260508194604 75 50 1.0 5.0 0.00 0.00 0.00 35 1017.6
20260508194104 75 356 0.0 7.0 0.00 0.00 0.00 35 1017.7
20260508194021 76 6 2.0 6.0 0.00 0.00 0.00 36 1017.8
20260508193104 76 28 0.0 5.0 0.00 0.00 0.00 38 1017.8
20260508193023 75 349 2.0 6.0 0.00 0.00 0.00 37 1017.9
20260508192606 75 349 2.0 6.0 0.00 0.00 0.00 37 1017.9
20260508192104 75 310 0.0 5.0 0.00 0.00 0.00 37 1017.9
20260508192020 74 1 0.0 0.0 0.00 0.00 0.00 37 1017.9
20260508191104 74 0 2.0 6.0 0.00 0.00 0.00 35 1018.0
20260508191022 73 349 1.0 7.0 0.00 0.00 0.00 38 1018.0
20260508190104 74 355 3.0 6.0 0.00 0.00 0.00 38 1018.2
20260508190025 74 49 1.0 6.0 0.00 0.00 0.00 40 1018.1